| time (UTC) | temp F | wind direction | speed MPH | gust MPH | rain 1hr in | rain 24hr in | rain mn in | humidity % | barometer mb |
| 20260503034300 | 54 | 0.0 | 0.0 | 0.00 | 0.00 | 0.00 | 34 | 1018.9 | |
| 20260503033326 | 54 | 0.0 | 0.0 | 0.00 | 0.00 | 0.00 | 34 | 1018.8 | |
| 20260503032351 | 54 | 0.0 | 0.0 | 0.00 | 0.00 | 0.00 | 33 | 1018.9 | |
| 20260503031416 | 54 | 0.0 | 0.0 | 0.00 | 0.00 | 0.00 | 33 | 1019.0 | |
| 20260503030441 | 54 | 0.0 | 0.0 | 0.00 | 0.00 | 0.00 | 33 | 1018.8 | |
| 20260503025506 | 55 | 0.0 | 0.0 | 0.00 | 0.00 | 0.00 | 33 | 1018.9 | |
| 20260503024531 | 54 | 0.0 | 0.0 | 0.00 | 0.00 | 0.00 | 33 | 1018.8 | |
| 20260503023556 | 55 | 0.0 | 0.0 | 0.00 | 0.00 | 0.00 | 33 | 1018.8 | |
| 20260503022622 | 55 | 0.0 | 0.0 | 0.00 | 0.00 | 0.00 | 32 | 1018.8 | |
| 20260503021647 | 55 | 0.0 | 0.0 | 0.00 | 0.00 | 0.00 | 32 | 1018.8 | |
| 20260503020712 | 56 | 0.0 | 0.0 | 0.00 | 0.00 | 0.00 | 32 | 1018.9 | |
| 20260503015737 | 56 | 0.0 | 0.0 | 0.00 | 0.00 | 0.00 | 31 | 1019.0 | |
| 20260503014802 | 57 | 0.0 | 0.0 | 0.00 | 0.00 | 0.00 | 31 | 1019.0 | |
| 20260503013827 | 58 | 0.0 | 0.0 | 0.00 | 0.00 | 0.00 | 31 | 1019.0 | |
| 20260503012852 | 59 | 0.0 | 0.0 | 0.00 | 0.00 | 0.00 | 30 | 1019.1 | |
| 20260503011917 | 60 | 0.0 | 0.0 | 0.00 | 0.00 | 0.00 | 30 | 1019.0 | |
| 20260503010943 | 61 | 0.0 | 0.0 | 0.00 | 0.00 | 0.00 | 30 | 1019.0 | |
| 20260503010008 | 63 | 0.0 | 0.0 | 0.00 | 0.00 | 0.00 | 29 | 1019.1 | |
| 20260503005033 | 64 | 0.0 | 0.0 | 0.00 | 0.00 | 0.00 | 29 | 1019.3 | |
| 20260503004058 | 64 | 0.0 | 0.0 | 0.00 | 0.00 | 0.00 | 30 | 1019.1 | |
| 20260503003123 | 64 | 0.0 | 0.0 | 0.00 | 0.00 | 0.00 | 29 | 1019.3 | |
| 20260503002148 | 64 | 0.0 | 0.0 | 0.00 | 0.00 | 0.00 | 29 | 1019.4 | |
| 20260503001213 | 65 | 0.0 | 0.0 | 0.00 | 0.00 | 0.00 | 30 | 1019.3 | |
| 20260503000240 | 64 | 0.0 | 0.0 | 0.00 | 0.00 | 0.00 | 29 | 1019.3 | |
| 20260502235305 | 64 | 0.0 | 0.0 | 0.00 | 0.00 | 0.00 | 30 | 1019.4 | |
| 20260502234329 | 64 | 0.0 | 0.0 | 0.00 | 0.00 | 0.00 | 30 | 1019.5 | |
| 20260502233354 | 64 | 0.0 | 0.0 | 0.00 | 0.00 | 0.00 | 29 | 1019.5 | |
| 20260502232419 | 65 | 0.0 | 0.0 | 0.00 | 0.00 | 0.00 | 30 | 1019.5 | |
| 20260502231444 | 65 | 0.0 | 0.0 | 0.00 | 0.00 | 0.00 | 29 | 1019.7 | |
| 20260502230509 | 65 | 0.0 | 0.0 | 0.00 | 0.00 | 0.00 | 30 | 1019.7 | |
| 20260502225534 | 65 | 0.0 | 0.0 | 0.00 | 0.00 | 0.00 | 29 | 1019.8 | |
| 20260502224559 | 65 | 0.0 | 0.0 | 0.00 | 0.00 | 0.00 | 30 | 1019.8 | |
| 20260502223625 | 65 | 0.0 | 0.0 | 0.00 | 0.00 | 0.00 | 29 | 1019.8 | |
| 20260502222650 | 65 | 0.0 | 0.0 | 0.00 | 0.00 | 0.00 | 29 | 1020.0 | |
| 20260502221715 | 66 | 0.0 | 0.0 | 0.00 | 0.00 | 0.00 | 29 | 1019.9 | |
| 20260502220740 | 66 | 0.0 | 0.0 | 0.00 | 0.00 | 0.00 | 29 | 1020.0 | |
| 20260502215805 | 66 | 0.0 | 0.0 | 0.00 | 0.00 | 0.00 | 29 | 1020.0 | |
| 20260502214830 | 66 | 0.0 | 0.0 | 0.00 | 0.00 | 0.00 | 29 | 1020.1 | |
| 20260502213855 | 66 | 0.0 | 0.0 | 0.00 | 0.00 | 0.00 | 29 | 1020.1 | |
| 20260502212921 | 66 | 0.0 | 0.0 | 0.00 | 0.00 | 0.00 | 29 | 1020.1 | |
| 20260502211946 | 66 | 0.0 | 0.0 | 0.00 | 0.00 | 0.00 | 29 | 1020.2 | |
| 20260502211011 | 67 | 0.0 | 0.0 | 0.00 | 0.00 | 0.00 | 29 | 1020.2 | |
| 20260502210036 | 67 | 0.0 | 0.0 | 0.00 | 0.00 | 0.00 | 30 | 1020.3 | |
| 20260502205101 | 67 | 0.0 | 0.0 | 0.00 | 0.00 | 0.00 | 29 | 1020.4 | |
| 20260502204126 | 67 | 0.0 | 0.0 | 0.00 | 0.00 | 0.00 | 29 | 1020.5 | |
| 20260502203151 | 67 | 0.0 | 0.0 | 0.00 | 0.00 | 0.00 | 29 | 1020.5 | |
| 20260502202216 | 67 | 0.0 | 0.0 | 0.00 | 0.00 | 0.00 | 29 | 1020.6 | |
| 20260502201241 | 67 | 0.0 | 0.0 | 0.00 | 0.00 | 0.00 | 29 | 1020.5 | |
| 20260502200307 | 67 | 0.0 | 0.0 | 0.00 | 0.00 | 0.00 | 29 | 1020.6 | |
| 20260502195332 | 67 | 0.0 | 0.0 | 0.00 | 0.00 | 0.00 | 29 | 1020.6 | |
| 20260502194357 | 68 | 0.0 | 0.0 | 0.00 | 0.00 | 0.00 | 29 | 1020.6 | |
| 20260502193422 | 68 | 0.0 | 0.0 | 0.00 | 0.00 | 0.00 | 29 | 1020.7 | |
| 20260502192447 | 68 | 0.0 | 0.0 | 0.00 | 0.00 | 0.00 | 29 | 1020.8 | |
| 20260502191512 | 68 | 0.0 | 0.0 | 0.00 | 0.00 | 0.00 | 29 | 1020.7 | |
| 20260502190537 | 68 | 0.0 | 0.0 | 0.00 | 0.00 | 0.00 | 29 | 1020.7 | |
| 20260502185603 | 68 | 0.0 | 0.0 | 0.00 | 0.00 | 0.00 | 29 | 1020.6 | |
| 20260502184628 | 69 | 0.0 | 0.0 | 0.00 | 0.00 | 0.00 | 29 | 1020.6 | |
| 20260502183653 | 69 | 0.0 | 0.0 | 0.00 | 0.00 | 0.00 | 29 | 1020.7 | |
| 20260502182718 | 69 | 0.0 | 0.0 | 0.00 | 0.00 | 0.00 | 29 | 1020.6 | |
| 20260502181743 | 70 | 0.0 | 0.0 | 0.00 | 0.00 | 0.00 | 29 | 1020.5 | |
| 20260502180808 | 71 | 0.0 | 0.0 | 0.00 | 0.00 | 0.00 | 29 | 1020.5 | |
| 20260502170104 | 74 | 0.0 | 0.0 | 0.00 | 0.00 | 0.00 | 29 | 1020.6 | |
| 20260502164154 | 74 | 0.0 | 0.0 | 0.00 | 0.00 | 0.00 | 29 | 1020.8 | |
| 20260502163219 | 74 | 0.0 | 0.0 | 0.00 | 0.00 | 0.00 | 28 | 1020.9 | |
| 20260502162244 | 74 | 0.0 | 0.0 | 0.00 | 0.00 | 0.00 | 29 | 1021.0 | |
| 20260502161310 | 75 | 0.0 | 0.0 | 0.00 | 0.00 | 0.00 | 29 | 1021.1 | |
| 20260502160335 | 75 | 0.0 | 0.0 | 0.00 | 0.00 | 0.00 | 28 | 1021.2 | |
| 20260502151540 | 76 | 0.0 | 0.0 | 0.00 | 0.00 | 0.00 | 29 | 1021.7 | |
| 20260502150606 | 76 | 0.0 | 0.0 | 0.00 | 0.00 | 0.00 | 29 | 1021.8 | |
| 20260502130132 | 73 | 0.0 | 0.0 | 0.00 | 0.00 | 0.00 | 31 | 1023.1 | |
| 20260502123248 | 72 | 0.0 | 0.0 | 0.00 | 0.00 | 0.00 | 31 | 1023.3 | |
| 20260502122313 | 71 | 0.0 | 0.0 | 0.00 | 0.00 | 0.00 | 32 | 1023.4 | |
| 20260502121338 | 71 | 0.0 | 0.0 | 0.00 | 0.00 | 0.00 | 32 | 1023.6 | |
| 20260502120403 | 70 | 0.0 | 0.0 | 0.00 | 0.00 | 0.00 | 32 | 1023.6 | |
| 20260502115428 | 69 | 0.0 | 0.0 | 0.00 | 0.00 | 0.00 | 32 | 1023.7 | |
| 20260502114453 | 69 | 0.0 | 0.0 | 0.00 | 0.00 | 0.00 | 32 | 1023.8 | |
| 20260502113518 | 69 | 0.0 | 0.0 | 0.00 | 0.00 | 0.00 | 33 | 1024.0 | |
| 20260502112544 | 68 | 0.0 | 0.0 | 0.00 | 0.00 | 0.00 | 33 | 1024.0 | |
| 20260502111609 | 67 | 0.0 | 0.0 | 0.00 | 0.00 | 0.00 | 33 | 1024.2 | |
| 20260502110634 | 67 | 0.0 | 0.0 | 0.00 | 0.00 | 0.00 | 33 | 1024.3 | |
| 20260502105659 | 66 | 0.0 | 0.0 | 0.00 | 0.00 | 0.00 | 34 | 1024.4 | |
| 20260502104724 | 66 | 0.0 | 0.0 | 0.00 | 0.00 | 0.00 | 34 | 1024.6 | |
| 20260502103749 | 65 | 0.0 | 0.0 | 0.00 | 0.00 | 0.00 | 34 | 1024.7 | |
| 20260502102814 | 65 | 0.0 | 0.0 | 0.00 | 0.00 | 0.00 | 34 | 1024.7 | |
| 20260502101917 | 65 | 0.0 | 0.0 | 0.00 | 0.00 | 0.00 | 34 | 1024.9 | |
| 20260502101839 | 65 | 0.0 | 0.0 | 0.00 | 0.00 | 0.00 | 34 | 1024.9 | |
| 20260502100905 | 65 | 0.0 | 0.0 | 0.00 | 0.00 | 0.00 | 34 | 1024.9 | |
| 20260502091135 | 63 | 0.0 | 0.0 | 0.00 | 0.00 | 0.00 | 34 | 1025.4 | |
| 20260502090200 | 63 | 0.0 | 0.0 | 0.00 | 0.00 | 0.00 | 35 | 1025.5 | |
| 20260502070702 | 61 | 0.0 | 0.0 | 0.00 | 0.00 | 0.00 | 35 | 1025.8 | |
| 20260502065727 | 61 | 0.0 | 0.0 | 0.00 | 0.00 | 0.00 | 34 | 1025.7 | |
| 20260502064752 | 61 | 0.0 | 0.0 | 0.00 | 0.00 | 0.00 | 34 | 1025.7 | |
| 20260502063817 | 60 | 0.0 | 0.0 | 0.00 | 0.00 | 0.00 | 34 | 1025.7 | |
| 20260502062842 | 60 | 0.0 | 0.0 | 0.00 | 0.00 | 0.00 | 35 | 1025.7 | |
| 20260502061908 | 60 | 0.0 | 0.0 | 0.00 | 0.00 | 0.00 | 34 | 1025.7 | |
| 20260502060933 | 60 | 0.0 | 0.0 | 0.00 | 0.00 | 0.00 | 34 | 1025.7 | |
| 20260502055958 | 60 | 0.0 | 0.0 | 0.00 | 0.00 | 0.00 | 35 | 1025.7 | |
| 20260502055023 | 60 | 0.0 | 0.0 | 0.00 | 0.00 | 0.00 | 35 | 1025.6 | |
| 20260502054048 | 59 | 0.0 | 0.0 | 0.00 | 0.00 | 0.00 | 35 | 1025.5 | |
| 20260502053113 | 59 | 0.0 | 0.0 | 0.00 | 0.00 | 0.00 | 35 | 1025.5 | |
| 20260502052138 | 59 | 0.0 | 0.0 | 0.00 | 0.00 | 0.00 | 35 | 1025.4 | |
| 20260502051203 | 59 | 0.0 | 0.0 | 0.00 | 0.00 | 0.00 | 35 | 1025.4 | |
| 20260502050229 | 59 | 0.0 | 0.0 | 0.00 | 0.00 | 0.00 | 35 | 1025.4 | |
| 20260502045254 | 59 | 0.0 | 0.0 | 0.00 | 0.00 | 0.00 | 35 | 1025.3 | |
| 20260502044319 | 59 | 0.0 | 0.0 | 0.00 | 0.00 | 0.00 | 35 | 1025.2 | |
| 20260502043344 | 59 | 0.0 | 0.0 | 0.00 | 0.00 | 0.00 | 35 | 1025.3 | |
| 20260502042409 | 59 | 0.0 | 0.0 | 0.00 | 0.00 | 0.00 | 35 | 1025.2 | |
| 20260502041434 | 59 | 0.0 | 0.0 | 0.00 | 0.00 | 0.00 | 35 | 1025.1 | |
| 20260502040459 | 59 | 0.0 | 0.0 | 0.00 | 0.00 | 0.00 | 35 | 1025.2 | |
| 20260502035524 | 59 | 0.0 | 0.0 | 0.00 | 0.00 | 0.00 | 35 | 1025.1 | |
| 20260502035216 | 59 | 0.0 | 0.0 | 0.00 | 0.00 | 0.00 | 35 | 1025.2 | |
| 20260502034550 | 59 | 0.0 | 0.0 | 0.00 | 0.00 | 0.00 | 35 | 1025.2 |